[[{"header":{"parameterUnit":"m.s-1","parameterCategory":1,"la1":30.2991,"la2":30.254,"lo1":-89.0895,"lo2":-89.0444,"dy":0.0017,"dx":0.0017,"nx":28,"ny":28,"refTime":"2025-11-26T03:00:00:Z","depth":0,"parameterNumber":2,"parameterNumberName":"U-component_of_WINDS"},"data":[0,0,0,0,0,0,0,0,0,0,0,0,0,0,0,0,0,0,0,0,0,0,0,0,0,0,0,0,0,0,0,0,0,0,0,0,0,0,0,0,0,0,0,0,0,0,0,0,0,0,0,0,0,0,0,0,0,0,1.3641,1.3641,0,1.3625,1.3625,1.3624,1.3604,1.3604,1.3603,1.3603,1.3585,1.3585,1.3584,0,0,0,0,0,0,0,0,0,0,0,0,0,1.3655,1.3655,1.3641,1.3641,1.3641,1.3625,1.3625,1.3624,1.3604,1.3604,1.3603,1.3603,1.3585,1.3585,1.3584,0,0,0,0,0,0,0,0,0,0,0,0,0,1.3645,1.3655,1.3641,1.3629,1.3628,1.3625,1.3625,1.3624,1.3604,1.3604,1.3603,1.3603,1.3585,1.3585,1.3584,1.3592,0,0,1.3583,1.3583,0,0,0,0,0,0,0,0,1.3645,1.3644,1.3631,1.363,1.3628,1.3616,1.3623,1.3614,1.3604,1.3613,1.3603,1.3602,1.3595,1.3594,1.3592,1.3591,1.3591,1.3583,1.3583,1.3583,1.3583,0,0,0,0,0,0,0,1.3646,1.3645,1.3635,1.3631,1.3629,1.3624,1.3622,1.3621,1.3607,1.3612,1.3611,1.3609,1.3595,1.3592,1.3592,1.359,1.3583,1.3583,1.3583,1.3583,1.3596,1.3596,0,0,0,0,0,0,1.3649,1.3646,1.3635,1.3634,1.3636,1.3624,1.3622,1.362,1.3607,1.3605,1.3609,1.3608,1.3593,1.3592,1.3591,1.3599,1.3583,1.3583,1.3583,1.3595,1.3596,1.3597,0,0,0,0,0,0,1.3649,1.3648,1.3636,1.364,1.3638,1.3624,1.3623,1.362,1.3618,1.3605,1.3602,1.361,1.3593,1.3591,1.3592,1.3598,1.3583,1.3583,1.3595,1.3596,1.3596,1.3616,0,0,0,0,0,0,1.365,1.3648,1.3651,1.364,1.3638,1.3638,1.3623,1.362,1.3618,1.3616,1.3605,1.3602,1.3592,1.3593,1.3592,1.3598,1.3582,1.3594,1.3595,1.3596,1.3615,1.3618,1.362,0,0,0,0,0,1.365,1.3657,1.3652,1.365,1.3641,1.3638,1.3637,1.3626,1.3618,1.3621,1.3613,1.3603,1.3598,1.3593,1.3592,1.3598,1.3594,1.3595,1.3596,1.3614,1.3617,1.362,0,0,0,0,0,0,1.3669,1.3655,1.3649,1.3652,1.3647,1.3635,1.3638,1.3629,1.3625,1.3623,1.3609,1.3607,1.361,1.3604,1.3599,1.3605,1.3594,1.3595,1.3608,1.3611,1.3614,1.3615,1.3582,0,0,0,0,0,1.3674,1.3673,1.3661,1.3665,1.3663,1.3651,1.3649,1.3641,1.3635,1.3632,1.3624,1.3617,1.3614,1.3613,1.3609,1.3615,1.3612,1.3618,1.362,1.3622,1.3623,1.3626,1.3628,1.36,1.36,1.36,0,0,1.3683,1.3676,1.3676,1.3669,1.3663,1.3663,1.3649,1.3649,1.3648,1.3632,1.3632,1.3626,1.3618,1.3621,1.3622,1.3616,1.3631,1.3624,1.3626,1.3625,1.3627,1.363,1.3632,1.3601,1.3601,1.3601,0,0,1.3699,1.3694,1.3697,1.3692,1.3684,1.3677,1.3678,1.3667,1.3663,1.3663,1.3651,1.365,1.3645,1.364,1.3637,1.3653,1.3644,1.3653,1.3665,1.3667,1.367,1.3671,1.3677,1.3679,1.3654,1.3654,1.3654,0,1.3712,1.371,1.3699,1.37,1.3697,1.3684,1.3686,1.3682,1.3674,1.3672,1.3666,1.3661,1.3654,1.3656,1.366,1.3658,1.3659,1.3653,1.367,1.3672,1.3674,1.3678,1.3681,1.3655,1.3655,1.3655,1.3654,0,1.3726,1.3725,1.3728,1.3721,1.3719,1.3721,1.371,1.3709,1.3702,1.3695,1.3696,1.3688,1.3683,1.3683,1.3676,1.3684,1.3681,1.3673,1.3662,1.3678,1.3682,1.3684,1.3656,1.3656,1.3656,1.3655,0,0,1.3752,1.374,1.3741,1.3737,1.3729,1.3728,1.3729,1.3725,1.3725,1.372,1.372,1.3717,1.371,1.3707,1.3699,1.3701,1.3714,1.3693,1.3693,1.3697,1.3723,1.3728,1.3731,1.3709,1.3709,1.3709,1.3723,0,1.3766,1.3768,1.3758,1.3762,1.3762,1.3749,1.3751,1.3746,1.3739,1.3738,1.3731,1.3729,1.372,1.3718,1.372,1.3712,1.3719,1.3711,1.3708,1.3708,1.371,1.3733,1.3738,1.3752,1.3725,1.3725,1.3726,0,1.3782,1.3779,1.3783,1.3774,1.3774,1.3775,1.3771,1.377,1.3764,1.3759,1.3756,1.3747,1.3748,1.3739,1.374,1.3734,1.3733,1.3729,1.373,1.3728,1.3717,1.3731,1.3756,1.3758,1.3728,1.3728,1.3728,0,1.38,1.3797,1.3799,1.3796,1.3787,1.3788,1.3784,1.3778,1.3776,1.3772,1.3771,1.3768,1.3765,1.3763,1.3753,1.3747,1.3755,1.3745,1.3751,1.3751,1.3752,1.3752,1.3777,1.3753,1.3753,1.3753,1.3753,0,1.3816,1.3819,1.3807,1.3808,1.3811,1.3801,1.3804,1.3799,1.3793,1.3793,1.3783,1.3783,1.3771,1.377,1.3763,1.3765,1.3764,1.376,1.3758,1.376,1.3761,1.3758,1.3757,1.3754,1.3753,1.3753,1.3753,0,1.3836,1.3828,1.3829,1.3821,1.3818,1.3821,1.3814,1.3814,1.3808,1.3808,1.3808,1.3798,1.3796,1.3787,1.3783,1.3778,1.3782,1.3779,1.3784,1.3783,1.3789,1.3788,1.3812,1.3815,1.379,1.3791,1.3791,0,1.3846,1.3848,1.384,1.3839,1.3836,1.3835,1.3834,1.3824,1.3823,1.3817,1.3819,1.3816,1.3814,1.3811,1.3804,1.3801,1.3797,1.3805,1.3796,1.3799,1.3796,1.3796,1.3796,1.3807,1.3807,1.3807,1.3808,0,1.3865,1.3861,1.3859,1.3856,1.3855,1.3852,1.3849,1.3849,1.3838,1.3838,1.3836,1.3834,1.3831,1.3828,1.3824,1.382,1.3812,1.3811,1.3812,1.3814,1.3817,1.3815,1.3789,1.381,1.381,1.381,1.3809,1.3809,1.3879,1.3881,1.3876,1.3874,1.3871,1.3868,1.3868,1.3863,1.3862,1.3858,1.3853,1.3852,1.3847,1.3841,1.3837,1.3837,1.3832,1.3834,1.3834,1.3834,1.3835,1.3818,1.3836,1.3836,1.3836,1.3836,1.3836,0,1.3897,1.3893,1.3892,1.3888,1.3887,1.3881,1.3877,1.3876,1.3876,1.3872,1.387,1.3869,1.3867,1.386,1.3857,1.3858,1.3854,1.3857,1.3857,1.3856,1.384,1.3839,1.386,1.386,1.386,1.386,1.386,1.386,1.3906,1.3908,1.3904,1.3904,1.39,1.39,1.3898,1.3896,1.3893,1.3892,1.389,1.3886,1.3881,1.3878,1.3876,1.3874,1.3873,1.3877,1.3874,1.3859,1.3857,1.3855,1.3853,1.3878,1.3878,1.389,1.389,1.389]},{"header":{"parameterUnit":"m.s-1","parameterCategory":1,"la1":30.2991,"la2":30.254,"lo1":-89.0895,"lo2":-89.0444,"dy":0.0017,"dx":0.0017,"nx":28,"ny":28,"refTime":"2025-11-26T03:00:00:Z","depth":0,"parameterNumber":3,"parameterNumberName":"V-component_of_WINDS"},"data":[0,0,0,0,0,0,0,0,0,0,0,0,0,0,0,0,0,0,0,0,0,0,0,0,0,0,0,0,0,0,0,0,0,0,0,0,0,0,0,0,0,0,0,0,0,0,0,0,0,0,0,0,0,0,0,0,0,0,-5.7295,-5.7297,0,-5.7445,-5.7447,-5.7448,-5.7399,-5.7396,-5.7393,-5.739,-5.7538,-5.7545,-5.7551,0,0,0,0,0,0,0,0,0,0,0,0,0,-5.6963,-5.6969,-5.7295,-5.7297,-5.7299,-5.7445,-5.7447,-5.7449,-5.74,-5.7396,-5.7392,-5.7388,-5.7536,-5.7544,-5.7552,0,0,0,0,0,0,0,0,0,0,0,0,0,-5.7109,-5.6971,-5.7295,-5.7292,-5.7293,-5.7444,-5.7447,-5.7449,-5.7401,-5.7396,-5.7391,-5.7387,-5.7533,-5.7543,-5.7553,-5.7714,0,0,-5.7585,-5.759,0,0,0,0,0,0,0,0,-5.7101,-5.7121,-5.7291,-5.7293,-5.7294,-5.7399,-5.7384,-5.7538,-5.7402,-5.736,-5.739,-5.7384,-5.7495,-5.7508,-5.7547,-5.7721,-5.7727,-5.7586,-5.7592,-5.7597,-5.76,0,0,0,0,0,0,0,-5.7091,-5.7115,-5.7354,-5.7293,-5.7295,-5.7282,-5.7298,-5.7413,-5.7452,-5.7363,-5.736,-5.7379,-5.7495,-5.7537,-5.755,-5.7729,-5.7586,-5.7595,-5.7601,-5.7605,-5.8044,-5.8049,0,0,0,0,0,0,-5.708,-5.7107,-5.7349,-5.7359,-5.7184,-5.7292,-5.7309,-5.737,-5.7451,-5.7459,-5.7383,-5.7376,-5.7521,-5.7538,-5.7555,-5.7749,-5.7597,-5.7606,-5.7612,-5.8039,-5.8045,-5.8051,0,0,0,0,0,0,-5.7073,-5.7102,-5.7343,-5.7232,-5.7262,-5.7303,-5.7371,-5.7375,-5.7417,-5.7466,-5.7472,-5.7418,-5.7518,-5.754,-5.7675,-5.7754,-5.7611,-5.7621,-5.8032,-5.8041,-5.8048,-5.8139,0,0,0,0,0,0,-5.7064,-5.71,-5.7162,-5.7234,-5.7268,-5.7463,-5.7376,-5.7382,-5.7436,-5.7428,-5.7501,-5.7508,-5.7516,-5.766,-5.7686,-5.7766,-5.7629,-5.8025,-5.8036,-5.8046,-5.8129,-5.8149,-5.8167,0,0,0,0,0,-5.7052,-5.7181,-5.7166,-5.7195,-5.7347,-5.7467,-5.7487,-5.7495,-5.7442,-5.7505,-5.7537,-5.7506,-5.7741,-5.7674,-5.7703,-5.7787,-5.8021,-5.8033,-5.8045,-5.8121,-5.8146,-5.8166,0,0,0,0,0,0,-5.7115,-5.719,-5.7174,-5.733,-5.7393,-5.7459,-5.7538,-5.752,-5.7598,-5.7587,-5.7592,-5.7609,-5.7748,-5.7781,-5.7705,-5.7947,-5.7873,-5.7891,-5.7921,-5.7945,-5.7963,-5.7952,-5.7637,0,0,0,0,0,-5.7147,-5.7241,-5.73,-5.7431,-5.7464,-5.7496,-5.7549,-5.755,-5.7615,-5.764,-5.7682,-5.7745,-5.7833,-5.789,-5.7974,-5.8134,-5.8149,-5.8206,-5.8224,-5.8239,-5.8255,-5.8343,-5.8369,-5.8091,-5.8091,-5.8091,0,0,-5.7214,-5.7267,-5.7325,-5.7446,-5.7495,-5.759,-5.7519,-5.7622,-5.7693,-5.7655,-5.7787,-5.7819,-5.789,-5.8039,-5.8106,-5.807,-5.8336,-5.8255,-5.8267,-5.8274,-5.8359,-5.8385,-5.8408,-5.8099,-5.8098,-5.8097,0,0,-5.7385,-5.7434,-5.755,-5.7601,-5.7678,-5.7698,-5.7726,-5.7796,-5.7817,-5.7949,-5.7923,-5.8007,-5.8158,-5.821,-5.8256,-5.8449,-5.8424,-5.8476,-5.8573,-5.8659,-5.8681,-5.87,-5.877,-5.8795,-5.8492,-5.8492,-5.8492,0,-5.7458,-5.7603,-5.7611,-5.7718,-5.7772,-5.7745,-5.7862,-5.7911,-5.801,-5.8047,-5.8006,-5.8197,-5.8242,-5.8403,-5.8451,-5.8489,-5.852,-5.8468,-5.8677,-5.8697,-5.8715,-5.8781,-5.8808,-5.8498,-5.8497,-5.8496,-5.8496,0,-5.7689,-5.779,-5.7874,-5.7973,-5.8036,-5.8148,-5.8172,-5.8235,-5.8231,-5.8256,-5.8391,-5.8445,-5.854,-5.8578,-5.8573,-5.8739,-5.8714,-5.8676,-5.8601,-5.8747,-5.881,-5.8835,-5.8506,-5.8504,-5.8502,-5.8501,0,0,-5.7902,-5.8007,-5.8037,-5.8083,-5.8166,-5.8243,-5.8353,-5.8448,-5.8503,-5.8572,-5.8664,-5.8794,-5.876,-5.8812,-5.8813,-5.8889,-5.904,-5.8841,-5.8842,-5.8876,-5.9226,-5.9255,-5.9284,-5.9024,-5.9029,-5.9033,-5.922,0,-5.8081,-5.8276,-5.8288,-5.8465,-5.8559,-5.8535,-5.8631,-5.8692,-5.8719,-5.8801,-5.8829,-5.8922,-5.8868,-5.89,-5.8974,-5.9006,-5.911,-5.8992,-5.9109,-5.9113,-5.9093,-5.9317,-5.9348,-5.9522,-5.9245,-5.9249,-5.9252,0,-5.8314,-5.8394,-5.8581,-5.8653,-5.8693,-5.8779,-5.8868,-5.8947,-5.9016,-5.903,-5.909,-5.9081,-5.9193,-5.9115,-5.927,-5.919,-5.9238,-5.9261,-5.9268,-5.9279,-5.9191,-5.9334,-5.9578,-5.9604,-5.929,-5.9287,-5.9284,0,-5.8452,-5.8606,-5.8738,-5.8778,-5.8865,-5.8926,-5.8965,-5.9029,-5.9086,-5.9163,-5.92,-5.9288,-5.9337,-5.9405,-5.942,-5.9362,-5.9575,-5.9498,-5.9589,-5.9589,-5.9635,-5.9632,-5.989,-5.9666,-5.9665,-5.9665,-5.9664,0,-5.865,-5.8766,-5.8802,-5.8883,-5.9012,-5.9024,-5.9151,-5.9185,-5.9243,-5.933,-5.9314,-5.9395,-5.9411,-5.9496,-5.9508,-5.9634,-5.9656,-5.967,-5.9672,-5.9672,-5.967,-5.9703,-5.9691,-5.9672,-5.967,-5.9669,-5.9668,0,-5.8825,-5.8854,-5.8997,-5.9069,-5.909,-5.9182,-5.9242,-5.932,-5.9345,-5.9455,-5.9482,-5.9521,-5.962,-5.9643,-5.9759,-5.9768,-5.9918,-5.9908,-5.9896,-5.9895,-5.9985,-5.9977,-6.0274,-6.0313,-6.0064,-6.0066,-6.0068,0,-5.895,-5.9039,-5.9121,-5.918,-5.9222,-5.9316,-5.9375,-5.939,-5.9452,-5.9538,-5.9605,-5.9703,-5.9782,-5.9941,-5.9979,-6.0069,-6.0061,-6.0159,-6.0074,-6.0072,-6.0063,-6.0058,-6.0067,-6.0175,-6.0178,-6.018,-6.0182,0,-5.9168,-5.9179,-5.9266,-5.9359,-5.943,-5.9503,-5.9572,-5.962,-5.9645,-5.9715,-5.9818,-5.988,-6.0001,-6.0098,-6.0188,-6.0226,-6.0209,-6.0208,-6.0234,-6.0235,-6.0224,-6.0232,-5.994,-6.0201,-6.0199,-6.0198,-6.0197,-6.0196,-5.9322,-5.9401,-5.9472,-5.9569,-5.9624,-5.969,-5.9767,-5.9804,-5.989,-5.9991,-5.9995,-6.0107,-6.0174,-6.0294,-6.0338,-6.0424,-6.0394,-6.0431,-6.0441,-6.045,-6.0458,-6.0211,-6.0441,-6.044,-6.044,-6.0439,-6.0439,0,-5.954,-5.9585,-5.9675,-5.9775,-5.9852,-5.983,-5.9907,-5.9972,-6.0071,-6.0137,-6.0216,-6.0334,-6.0429,-6.0475,-6.0569,-6.063,-6.0624,-6.0654,-6.0649,-6.0658,-6.048,-6.0449,-6.0657,-6.0657,-6.0657,-6.0657,-6.0657,-6.0657,-5.9663,-5.9795,-5.9814,-5.9974,-6.0017,-6.0129,-6.0174,-6.0235,-6.0287,-6.0421,-6.0501,-6.0531,-6.0589,-6.0687,-6.0773,-6.0784,-6.0819,-6.0854,-6.0861,-6.0693,-6.0671,-6.065,-6.062,-6.0861,-6.0861,-6.1032,-6.1034,-6.1035]}]]